CZ-6A DEB

Satellite information

Favourite Embed

Satellite Type and Status

DEBRISIN ORBIT

Key statistics

Satellite CZ-6A DEB at a glance.

Uptime

274

Days in orbit

Revolutions

≈ 14.3

Per day

Orbit

LEO

Low Earth Orbit

Inclination

89.4

Latest

Satellite identification and parameters

Extended collection of information and parameters for CZ-6A DEB.

Object identification

Identified? True

Debris? True

Object name: CZ-6A DEB

International designator: 2024-140JT

Object number (NORAD): 60864

Object ID (CCSDS): 60864

Country: PEOPLES REPUBLIC OF CHINA (PRC)

Current information (Y/N): Y

RCS size: SMALL

Orbital parameters

Period: 100.464 minutes

Inclination: 89.4277 deg

SMA: 7158.691 km

Apoapsis: 791.134 km

Periapsis: 769.978 km

RAAN: 333.8496 deg

Eccentricy: 0.0014776

Argument of periapsis: 267.3039 deg

Mean anomaly: 92.6467 deg

Mean motion: 14.33350326 rev/day

Mean motion (dot): 0.000018 rev/day2

B* drag term: 0.00064816 1/REarth

Two-line elements (TLE)

Creation date: May 6, 2025, 3:54 a.m.

Reference frame: TEME

Reference center: EARTH

Epoch: May 5, 2025, 8:21 p.m. UTC

TLE line 0: 0 CZ-6A DEB

TLE line 1: 1 60864U 24140JT 25125.84860333 .00001800 00000-0 64816-3 0 9992

TLE line 2: 2 60864 89.4277 333.8496 0014776 267.3039 92.6467 14.33350326 37109

Live tracking on map

Real-time ground track for satellite CZ-6A DEB.

In-orbit conjunctions

A list of the most updated potential collisions computed for object CZ-6A DEB.

Target Orbit TCA Probability of collision Miss distance Type
SHIYAN 20A DEB LEO 2025-04-14 14:25:24 0.0001221344 294.0 (m) DEBRIS
COSMOS 2251 DEB LEO 2025-02-19 17:27:01 0.0001397791 898.0 (m) DEBRIS
CZ-6A DEB LEO 2025-01-10 07:09:25 0.0002054281 929.0 (m) DEBRIS
FENGYUN 1C DEB SSO 2024-11-25 22:57:00 0.0001454018 697.0 (m) DEBRIS

Associated space launch

18 Low Earth Orbit communication satellites with Ku, Q and V band payloads for the G60 constellation operated by Shanghai Spacecom Satellite Technology (SSST) with funding backed by the Shanghai local government. Initial constellation will consist of 1296 satellites by 2027 with long term plans to expand it to 12000 satellites.

CZ-6A DEB was lifted into orbit during the mission ‘Long March 6A | G60 Polar Group 01’, on board a Long March 6A space rocket.

The launch took place on Aug. 6, 2024, 6:42 a.m. from Launch Complex 9A.

For more information about the launch, click the button.

Launch to space Long March 6A | G60 Polar Group 01
Long March 6A | G60 Polar Group 01

Agency: N/A

Status: Launch Successful

Launch date: Aug. 6, 2024, 6:42 a.m. UTC

Rocket: Long March 6A

Launch pad: Launch Complex 9A

Location: Taiyuan Satellite Launch Center, People's Republic of China

...

Latest news about this satellite

News about space launch
Brightness of first Chinese broadband constellation satellites alarms astronomers

The first satellites of a Chinese broadband constellation are significantly brighter than those of Western systems, posing a new challenge for astronomers.

News about space launch
Chinese rocket stage breaks up into cloud of more than 700 pieces of space debris

HELSINKI — A Chinese Long March 6A rocket’s upper stage has fragmented into a cloud of over 700 pieces of space debris, adding to concerns about long-term orbital safety. China […]

News about space launch
China's Thousand Sails Megaconstellation Kicks Off with Dangerous Debris Field

China's Thousand Sails Megaconstellation Kicks Off with Dangerous Debris Field


Newsletter sign-up

Weekly statistics, charts and insights to help you stay on top of the space industry.